{"data":{"norad_id":33446,"epoch":"2026-09-20T01:58:37.002144Z","epoch_age_seconds":50390,"freshness":"FRESH","line1":"1 33446U 08061A   26263.08237271  .00000572  00000+0  76224-4 0  9992","line2":"2 33446  97.9331 195.9087 0015446 118.4157 241.8616 14.83348326959733","mean_motion":14.83348326,"eccentricity":0.0015446,"inclination_deg":97.9331,"raan_deg":195.9087,"arg_perigee_deg":118.4157,"mean_anomaly_deg":241.8616,"bstar":7.6224e-5,"rev_number":95973,"period_min":97.07767048102,"perigee_km":607.96755254635,"apogee_km":629.58241304359,"semimajor_km":6996.911982795,"source":"CELESTRAK","updated_at":"2026-09-20T09:00:34.550392Z"}}